TimeMDT,TemperatureF,Dew PointF,Humidity,Sea Level PressureIn,VisibilityMPH,Wind Direction,Wind SpeedMPH,Gust SpeedMPH,PrecipitationIn,Events,Conditions,WindDirDegrees,DateUTC
12:15 AM,50.0,32.0,50,30.15,10.0,Calm,Calm,-,N/A,,Clear,0,2013-07-23 06:15:00
12:35 AM,50.0,35.6,58,30.15,10.0,North,3.5,-,N/A,,Clear,360,2013-07-23 06:35:00
12:55 AM,48.2,30.2,50,30.15,10.0,NNE,6.9,-,N/A,,Clear,20,2013-07-23 06:55:00
1:35 AM,50.0,30.2,47,30.16,10.0,North,5.8,-,N/A,,Clear,360,2013-07-23 07:35:00
1:55 AM,48.2,30.2,50,30.16,10.0,North,8.1,-,N/A,,Clear,350,2013-07-23 07:55:00
2:15 AM,46.4,30.2,53,30.16,10.0,North,10.4,-,N/A,,Clear,360,2013-07-23 08:15:00
2:35 AM,46.4,30.2,53,30.17,10.0,NNE,3.5,-,N/A,,Clear,20,2013-07-23 08:35:00
2:55 AM,48.2,30.2,50,30.17,10.0,NE,4.6,-,N/A,,Clear,40,2013-07-23 08:55:00
3:15 AM,46.4,30.2,53,30.18,10.0,NNE,6.9,-,N/A,,Clear,20,2013-07-23 09:15:00
3:35 AM,46.4,30.2,53,30.19,10.0,NNE,5.8,-,N/A,,Clear,30,2013-07-23 09:35:00
3:55 AM,48.2,30.2,50,30.19,10.0,North,11.5,-,N/A,,Clear,10,2013-07-23 09:55:00
4:15 AM,46.4,30.2,53,30.20,10.0,North,9.2,-,N/A,,Clear,350,2013-07-23 10:15:00
4:35 AM,48.2,30.2,50,30.20,10.0,North,8.1,-,N/A,,Clear,360,2013-07-23 10:35:00
4:55 AM,44.6,28.4,53,30.20,10.0,NNE,5.8,-,N/A,,Clear,30,2013-07-23 10:55:00
5:15 AM,46.4,28.4,50,30.21,10.0,NE,5.8,-,N/A,,Clear,40,2013-07-23 11:15:00
5:35 AM,42.8,28.4,57,30.22,10.0,NNE,4.6,-,N/A,,Clear,20,2013-07-23 11:35:00
5:55 AM,39.2,30.2,70,30.23,10.0,North,8.1,-,N/A,,Clear,350,2013-07-23 11:55:00
6:15 AM,41.0,30.2,65,30.24,10.0,North,4.6,-,N/A,,Clear,360,2013-07-23 12:15:00
6:35 AM,41.0,30.2,65,30.24,10.0,North,6.9,-,N/A,,Clear,360,2013-07-23 12:35:00
6:51 AM,42.8,23.0,46,30.25,10.0,North,5.8,-,N/A,,Clear,360,2013-07-23 12:51:00
7:51 AM,51.8,32.0,47,30.27,10.0,NNE,5.8,-,N/A,,Clear,30,2013-07-23 13:51:00
8:53 AM,59.0,28.4,31,30.28,10.0,NNE,5.8,-,N/A,,Clear,30,2013-07-23 14:53:00
9:59 AM,64.4,30.2,28,30.28,10.0,Calm,Calm,-,N/A,,Clear,0,2013-07-23 15:59:00
10:51 AM,69.8,30.2,23,30.27,10.0,Calm,Calm,-,N/A,,Clear,0,2013-07-23 16:51:00
11:52 AM,78.8,24.8,14,30.25,10.0,West,6.9,-,N/A,,Clear,270,2013-07-23 17:52:00
12:52 PM,80.6,24.8,13,30.23,10.0,Calm,Calm,-,N/A,,Clear,0,2013-07-23 18:52:00
1:53 PM,82.4,28.4,14,30.22,10.0,SSW,5.8,-,N/A,,Clear,210,2013-07-23 19:53:00
2:54 PM,82.4,23.0,11,30.21,10.0,ESE,4.6,-,N/A,,Clear,120,2013-07-23 20:54:00
3:54 PM,84.2,19.4,9,30.20,10.0,West,3.5,21.9,N/A,,Clear,280,2013-07-23 21:54:00
4:54 PM,84.2,19.4,9,30.20,10.0,SW,9.2,-,N/A,,Clear,220,2013-07-23 22:54:00
5:52 PM,82.4,21.2,10,30.19,10.0,SW,8.1,-,N/A,,Clear,220,2013-07-23 23:52:00
6:58 PM,80.6,26.6,14,30.19,10.0,WSW,4.6,-,N/A,,Clear,250,2013-07-24 00:58:00
7:51 PM,78.8,28.4,16,30.19,10.0,Calm,Calm,-,N/A,,Clear,0,2013-07-24 01:51:00
8:51 PM,73.4,28.4,19,30.21,10.0,Calm,Calm,-,N/A,,Clear,0,2013-07-24 02:51:00
8:55 PM,73.4,28.4,19,30.21,10.0,Calm,Calm,-,N/A,,Clear,0,2013-07-24 02:55:00
9:15 PM,69.8,30.2,23,30.21,10.0,Calm,Calm,-,N/A,,Clear,0,2013-07-24 03:15:00
9:35 PM,66.2,30.2,26,30.22,10.0,Calm,Calm,-,N/A,,Clear,0,2013-07-24 03:35:00
9:55 PM,62.6,37.4,39,30.23,10.0,North,4.6,-,N/A,,Clear,10,2013-07-24 03:55:00
10:15 PM,59.0,37.4,45,30.24,10.0,NE,3.5,-,N/A,,Clear,50,2013-07-24 04:15:00
10:35 PM,60.8,41.0,48,30.25,10.0,NNE,4.6,-,N/A,,Clear,30,2013-07-24 04:35:00
10:55 PM,57.2,39.2,51,30.25,10.0,NNE,4.6,-,N/A,,Clear,30,2013-07-24 04:55:00
11:15 PM,57.2,37.4,48,30.25,10.0,NNE,3.5,-,N/A,,Clear,30,2013-07-24 05:15:00
11:35 PM,57.2,37.4,48,30.25,10.0,North,4.6,-,N/A,,Clear,360,2013-07-24 05:35:00
11:55 PM,55.4,35.6,47,30.25,10.0,North,6.9,-,N/A,,Clear,360,2013-07-24 05:55:00